Regional Weather Roundup
Issued by NWS Newport/Morehead, NC

Current Version | Previous Version | Graphics & Text | Print | Product List | Glossary Off
Versions: 1 2 3 4 5 6 7 8 9 10 11 12 13 14 15 16 17 18 19 20 21 22 23 24 25 26 27 28 29 30 31 32 33 34 35 36 37 38 39 40 41 42 43 44 45 46 47 48 49 50

000
ASUS42 KMHX 220313
RWRMHX
WEATHER ROUNDUP FOR EASTERN NORTH CAROLINA
NATIONAL WEATHER SERVICE NEWPORT/MOREHEAD CITY NC
1100 PM EDT SUN MAY 21 2017

NOTE: "FAIR" INDICATES FEW OR NO CLOUDS BELOW 12,000 FEET
WITH NO SIGNIFICANT WEATHER AND/OR OBSTRUCTIONS TO VISIBILITY

NCZ015>017-031-032-045>047-102-103-220400-
NORTH COAST

CITY           SKY/WX    TMP DP  RH WIND       PRES   REMARKS
EDENTON        CLOUDY    66  62  85 CALM      30.18S
ELIZABETH CITY CLOUDY    65  63  93 N5        30.17F
KITTY HAWK     NOT AVBL
MANTEO         CLOUDY    68  66  94 SE3       30.17S

$$

NCZ045>047-081-094-103-104-220400-
CENTRAL COAST

CITY           SKY/WX    TMP DP  RH WIND       PRES   REMARKS
FRISCO         CLEAR     72  68  87 SE9       30.16R

$$

NCZ095-097-098-100-101-220400-
SOUTHERN COAST

CITY           SKY/WX    TMP DP  RH WIND       PRES   REMARKS
BEAUFORT       CLOUDY    73  71  93 E6        30.15S
CEDAR ISLAND   NOT AVBL
JACKSONVILLE   PTCLDY    73  68  84 E7        30.14F
PINEY ISLAND   MOCLDY   N/A N/A N/A E9        30.15S
WILMINGTON     MOCLDY    73  69  87 E6        30.14S


$$

NCZ011>013-027>030-043-044-078>080-089-090>093-098-220400-
COASTAL PLAIN

CITY           SKY/WX    TMP DP  RH WIND       PRES   REMARKS
AHOSKIE          N/A     65  60  85 NE3       30.18R
CLINTON        CLOUDY    71  69  94 CALM      30.15S
ELIZABETHTOWN  FOG       72  68  87 SE6       30.14R VSB 1/2
GOLDSBORO      CLOUDY    70  70 100 E5        30.14S
GREENVILLE     PTCLDY    68  66  94 E6        30.17F
HAVELOCK       MOCLDY    70  66  87 E3        30.16S
KENANSVILLE    CLOUDY    72  68  88 SE3       30.15F
KINSTON        PTCLDY    68  65  89 CALM      30.17R
NEW BERN       CLOUDY    70  68  93 E7        30.16S
RICHLANDS      PTCLDY    69  68  96 E3        30.15F
ROCKY MOUNT    MOCLDY    67  65  93 CALM      30.16S
WASHINGTON     CLOUDY    65  63  95 NE3       30.18R
WHITEVILLE     CLOUDY    72  68  88 E5        30.13S

$$

AMZ130-135-150-152-154-156-158-170-250-252-270-ANZ085-086-088-633-658-670-220400-
MARINE OBSERVATIONS

STATION/POSITION TIME  TEMP    WIND        PRES    WAVE   SWELL
                       AIR SEA DIR/SP/G            HT/PER HT/PER
                 (UTC) (F)     (DEG/KT/KT) (MB)    (FT/S) (FT/S)
CHESAPEAKE LIGHT NOT AVBL
64 E VA BEACH    0250   70 69  130/ 12/ 14 1022.1    6/10   5/10
DUCK             0248   66 66   80/  4/  4 1021.2
2 E DUCK         0300      65                N/A     4/ 7
OREGON INLET     0242   68 69  110/  4/  6 1021.3
13E OREGON INLT  0248      65                N/A     4/ 8   5/ 8
HATTERAS CG      0248   73 75  110/  7/  9 1020.8
DIAMOND BUOY     0250   76 79  110/ 16/ 19 1020.6    5/ 8   3/ 8
CAPE LOOKOUT     0300   72      80/  7/  8 1020.5
BEAUFORT LAB     0248   73 74   80/  5/  7 1020.3
30 SE NEW RVR IN 0208   73 76   90/ 10/ 14 1021.1
30 SE NEW RVR IN 0243      76                N/A     3/ 8
27 SE WRIGHTSVLE 0208   73 75  100/ 10/ 16 1020.2
5 SE WRIGHTSVLE  0208   74 76  100/ 12/ 17 1020.5
225 S CAPE HAT   0250   76 78  180/  4/  6 1021.3    3/ 9   3/ 9
41 SE CHARLESTON 0250   78 79  180/ 14/ 16 1020.0    2/ 7   2/ 7

$$




USA.gov is the U.S. government's official web portal to all federal, state and local government web resources and services.